FW3224 Weather Reports


time (UTC)temp
C
wind
direction
speed
KPH
gust
KPH
rain 1hr
cm
rain 24hr
cm
rain mn
cm
humidity
%
barometer
mb
20260905090057 23 256 16.1 41.8 0.00 0.00 0.00 57 1010.6
20260905085557 23 252 17.7 30.6 0.00 0.00 0.00 56 1010.4
20260905085057 23 287 12.9 30.6 0.00 0.00 0.00 57 1010.5
20260905084600 23 248 14.5 29.0 0.00 0.00 0.00 56 1010.6
20260905084057 23 259 11.3 33.8 0.00 0.00 0.00 58 1010.5
20260905083557 23 276 16.1 33.8 0.00 0.00 0.00 56 1010.5
20260905083109 23 285 6.4 20.9 0.00 0.00 0.00 54 1010.3
20260905082556 24 249 8.0 19.3 0.00 0.00 0.00 53 1010.0
20260905082056 24 159 8.0 22.5 0.00 0.00 0.00 53 1009.8
20260905081555 25 225 4.8 22.5 0.00 0.00 0.00 51 1009.7
20260905081055 25 200 6.4 22.5 0.00 0.00 0.00 50 1009.9
20260905080555 25 85 8.0 32.2 0.00 0.00 0.00 50 1009.8
20260905080055 25 272 11.3 32.2 0.00 0.00 0.00 49 1009.7
20260905075556 25 186 12.9 32.2 0.00 0.00 0.00 49 1009.7
20260905075054 25 150 16.1 29.0 0.00 0.00 0.00 47 1009.6
20260905074555 26 236 9.7 37.0 0.00 0.00 0.00 45 1009.4
20260905074057 27 165 12.9 33.8 0.00 0.00 0.00 41 1009.3
20260905073554 28 224 6.4 20.9 0.00 0.00 0.00 34 1008.4
20260905073057 28 275 11.3 20.9 0.00 0.00 0.00 33 1007.7
20260905072558 28 274 9.7 24.1 0.00 0.00 0.00 33 1007.6
20260905072057 28 264 8.0 29.0 0.00 0.00 0.00 33 1007.5
20260905071555 29 246 12.9 29.0 0.00 0.00 0.00 33 1007.4
20260905071053 29 275 12.9 35.4 0.00 0.00 0.00 32 1007.3
20260905070553 29 268 17.7 35.4 0.00 0.00 0.00 32 1007.3
20260905070054 29 286 14.5 25.7 0.00 0.00 0.00 32 1007.2
20260905065552 29 252 11.3 25.7 0.00 0.00 0.00 32 1007.1
20260905065052 30 300 8.0 30.6 0.00 0.00 0.00 32 1007.0
20260905064611 30 262 12.9 37.0 0.00 0.00 0.00 32 1007.0
20260905064052 30 249 20.9 43.5 0.00 0.00 0.00 31 1006.8
20260905063551 30 261 17.7 43.5 0.00 0.00 0.00 31 1006.6
20260905063054 30 302 17.7 48.3 0.00 0.00 0.00 31 1006.6
20260905062551 30 247 24.1 48.3 0.00 0.00 0.00 31 1006.6
20260905062051 30 242 22.5 48.3 0.00 0.00 0.00 31 1006.6
20260905061551 30 284 17.7 48.3 0.00 0.00 0.00 31 1006.7
20260905061050 30 263 27.4 48.3 0.00 0.00 0.00 31 1006.6
20260905060553 30 250 19.3 38.6 0.00 0.00 0.00 31 1006.6
20260905060051 30 273 17.7 38.6 0.00 0.00 0.00 31 1006.7
20260905055551 30 220 16.1 29.0 0.00 0.00 0.00 31 1006.5
20260905055050 30 268 17.7 41.8 0.00 0.00 0.00 31 1006.4
20260905054644 30 217 20.9 41.8 0.00 0.00 0.00 31 1006.5
20260905054050 30 261 19.3 40.2 0.00 0.00 0.00 30 1006.5
20260905053550 30 297 19.3 41.8 0.00 0.00 0.00 30 1006.5
20260905053050 30 257 22.5 41.8 0.00 0.00 0.00 30 1006.5
20260905052549 30 287 19.3 37.0 0.00 0.00 0.00 30 1006.6
20260905052049 30 241 17.7 37.0 0.00 0.00 0.00 30 1006.6
20260905051548 30 309 17.7 30.6 0.00 0.00 0.00 30 1006.7
20260905051047 30 272 14.5 45.1 0.00 0.00 0.00 30 1006.7
20260905050547 30 242 16.1 45.1 0.00 0.00 0.00 30 1006.8
20260905050047 30 265 16.1 41.8 0.00 0.00 0.00 30 1006.9
20260905045546 30 253 19.3 41.8 0.00 0.00 0.00 30 1006.8
20260905045046 30 241 17.7 41.8 0.00 0.00 0.00 30 1007.0
20260905044602 30 259 17.7 41.8 0.00 0.00 0.00 30 1006.9
20260905044045 30 260 24.1 41.8 0.00 0.00 0.00 29 1007.0
20260905043545 30 234 20.9 40.2 0.00 0.00 0.00 30 1007.1
20260905043044 31 250 12.9 38.6 0.00 0.00 0.00 30 1007.1
20260905042543 30 256 22.5 38.6 0.00 0.00 0.00 29 1007.3
20260905042043 31 272 17.7 40.2 0.00 0.00 0.00 30 1007.4
20260905041542 30 260 16.1 40.2 0.00 0.00 0.00 30 1007.5
20260905041041 31 265 17.7 35.4 0.00 0.00 0.00 30 1007.5
20260905040542 31 247 12.9 32.2 0.00 0.00 0.00 31 1007.7
20260905040040 31 227 12.9 32.2 0.00 0.00 0.00 31 1007.8
20260905035538 30 238 8.0 29.0 0.00 0.00 0.00 33 1007.8
20260905035037 30 248 16.1 37.0 0.00 0.00 0.00 33 1007.9
20260905034536 30 292 17.7 37.0 0.00 0.00 0.00 34 1008.2
20260905034035 29 236 12.9 22.5 0.00 0.00 0.00 36 1008.2
20260905033533 29 284 6.4 20.9 0.00 0.00 0.00 37 1008.4
20260905033038 28 275 11.3 22.5 0.00 0.00 0.00 36 1008.5
20260905032531 28 248 8.0 22.5 0.00 0.00 0.00 37 1008.8
20260905032029 28 257 6.4 19.3 0.00 0.00 0.00 39 1008.9
20260905031530 28 338 3.2 16.1 0.00 0.00 0.00 40 1009.0
20260905031028 28 290 4.8 16.1 0.00 0.00 0.00 39 1009.2
20260905030526 28 257 3.2 17.7 0.00 0.00 0.00 38 1009.3
20260905030032 28 331 6.4 17.7 0.00 0.00 0.00 38 1009.5
20260905025523 28 355 6.4 19.3 0.00 0.00 0.00 38 1009.7
20260905025022 28 267 8.0 19.3 0.00 0.00 0.00 37 1009.9
20260905024520 28 351 3.2 17.7 0.00 0.00 0.00 38 1010.1
20260905024019 27 299 6.4 19.3 0.00 0.00 0.00 38 1010.3
20260905023518 27 321 8.0 25.7 0.00 0.00 0.00 38 1010.4
20260905023017 27 292 9.7 25.7 0.00 0.00 0.00 37 1010.5
20260905022515 27 304 6.4 17.7 0.00 0.00 0.00 37 1010.7
20260905022015 27 311 9.7 16.1 0.00 0.00 0.00 37 1010.9
20260905021512 27 300 8.0 22.5 0.00 0.00 0.00 37 1011.0
20260905021011 27 308 9.7 22.5 0.00 0.00 0.00 37 1011.2
20260905020510 27 317 11.3 24.1 0.00 0.00 0.00 37 1011.3
20260905020010 27 277 12.9 29.0 0.00 0.00 0.00 37 1011.3
20260905015511 27 280 9.7 20.9 0.00 0.00 0.00 36 1011.5
20260905015008 27 262 8.0 20.9 0.00 0.00 0.00 37 1011.5
20260905014506 27 323 8.0 20.9 0.00 0.00 0.00 37 1011.7
20260905014006 27 263 6.4 20.9 0.00 0.00 0.00 38 1011.8
20260905013504 26 288 8.0 19.3 0.00 0.00 0.00 38 1011.8
20260905013004 26 304 8.0 20.9 0.00 0.00 0.00 38 1012.0
20260905012604 26 261 9.7 20.9 0.00 0.00 0.00 38 1012.0
20260905012100 26 252 9.7 20.9 0.00 0.00 0.00 38 1012.2
20260905011558 26 275 8.0 27.4 0.00 0.00 0.00 38 1012.4
20260905011100 26 305 9.7 27.4 0.00 0.00 0.00 37 1012.5
20260905010555 26 213 6.4 14.5 0.00 0.00 0.00 39 1012.7
20260905005552 25 297 11.3 22.5 0.00 0.00 0.00 40 1013.1
20260905005052 25 267 9.7 19.3 0.00 0.00 0.00 40 1013.1
20260905004550 25 273 9.7 17.7 0.00 0.00 0.00 40 1013.3
20260905004048 24 238 9.7 20.9 0.00 0.00 0.00 41 1013.5
20260905003547 24 258 6.4 22.5 0.00 0.00 0.00 41 1013.7
20260905003046 24 297 9.7 16.1 0.00 0.00 0.00 41 1013.8
20260905002545 24 279 8.0 16.1 0.00 0.00 0.00 42 1013.9
20260905002043 23 274 6.4 20.9 0.00 0.00 0.00 42 1014.0
20260905001542 23 264 8.0 17.7 0.00 0.00 0.00 41 1014.0
20260905001041 23 259 8.0 17.7 0.00 0.00 0.00 41 1014.1
20260905000542 23 303 6.4 20.9 0.00 0.00 0.00 41 1014.3
20260905000037 23 232 8.0 20.9 0.00 0.00 0.00 40 1014.4
20260904235535 23 250 4.8 16.1 0.00 0.00 0.00 42 1014.4
20260904235034 23 264 8.0 16.1 0.00 0.00 0.00 43 1014.5
20260904234533 23 275 6.4 20.9 0.00 0.00 0.00 43 1014.7
20260904234036 22 255 9.7 20.9 0.00 0.00 0.00 43 1014.8
20260904233530 22 227 11.3 20.9 0.00 0.00 0.00 44 1014.9
20260904233029 22 284 4.8 12.9 0.00 0.00 0.00 48 1014.9
20260904232528 22 267 6.4 12.9 0.00 0.00 0.00 47 1015.0
20260904232025 21 273 4.8 12.9 0.00 0.00 0.00 49 1015.1
20260904231524 21 319 4.8 14.5 0.00 0.00 0.00 51 1015.2
20260904231023 21 257 6.4 14.5 0.00 0.00 0.00 52 1015.3
20260904230524 21 291 4.8 14.5 0.00 0.00 0.00 52 1015.4
20260904230020 21 238 6.4 14.5 0.00 0.00 0.00 51 1015.5
20260904225521 21 302 6.4 14.5 0.00 0.00 0.00 51 1015.5
20260904225019 21 290 3.2 14.5 0.00 0.00 0.00 51 1015.6
20260904224520 20 281 4.8 14.5 0.00 0.00 0.00 50 1015.6
20260904224018 20 304 6.4 14.5 0.00 0.00 0.00 51 1015.7
20260904223516 20 279 4.8 11.3 0.00 0.00 0.00 51 1015.7
20260904223016 20 275 6.4 11.3 0.00 0.00 0.00 51 1015.7
20260904222515 20 297 3.2 12.9 0.00 0.00 0.00 52 1015.7
20260904222015 20 246 4.8 12.9 0.00 0.00 0.00 52 1015.7
20260904221514 20 276 0.0 9.7 0.00 0.00 0.00 53 1015.7
20260904221013 20 319 1.6 9.7 0.00 0.00 0.00 54 1015.7
20260904220512 20 292 3.2 8.0 0.00 0.00 0.00 54 1015.7
20260904220011 20 296 3.2 9.7 0.00 0.00 0.00 54 1015.9
20260904215510 19 271 3.2 9.7 0.00 0.00 0.00 54 1015.9
20260904215010 19 282 3.2 11.3 0.00 0.00 0.00 54 1016.0
20260904214510 19 263 4.8 12.9 0.00 0.00 0.00 54 1016.0
20260904214010 19 298 6.4 17.7 0.00 0.00 0.00 52 1016.0
20260904213510 19 288 6.4 17.7 0.00 0.00 0.00 52 1016.0
20260904213009 19 279 6.4 16.1 0.00 0.00 0.00 52 1015.9
20260904212509 19 307 4.8 17.7 0.00 0.00 0.00 52 1015.7
20260904212007 19 290 4.8 17.7 0.00 0.00 0.00 52 1015.7
20260904211508 19 286 4.8 14.5 0.00 0.00 0.00 52 1015.8
20260904211008 18 269 6.4 17.7 0.00 0.00 0.00 52 1015.8
20260904210505 18 251 6.4 16.1 0.00 0.00 0.00 53 1015.7
20260904210010 18 265 6.4 16.1 0.00 0.00 0.00 53 1015.7
20260904205504 18 275 8.0 16.1 0.00 0.00 0.00 53 1015.6
20260904205002 18 232 8.0 16.1 0.00 0.00 0.00 53 1015.7
20260904204501 18 279 9.7 17.7 0.00 0.00 0.00 53 1015.7
20260904204100 18 238 6.4 19.3 0.00 0.00 0.00 54 1015.6
20260904203559 18 296 9.7 19.3 0.00 0.00 0.00 54 1015.5
20260904203100 18 255 8.0 14.5 0.00 0.00 0.00 56 1015.6
20260904202558 18 297 4.8 16.1 0.00 0.00 0.00 56 1015.5
20260904202057 18 280 8.0 17.7 0.00 0.00 0.00 56 1015.5
20260904201558 18 263 9.7 17.7 0.00 0.00 0.00 56 1015.6
20260904201055 17 250 9.7 16.1 0.00 0.00 0.00 56 1015.6
20260904200554 17 280 8.0 16.1 0.00 0.00 0.00 57 1015.7
20260904200110 17 259 9.7 17.7 0.00 0.00 0.00 58 1015.6
20260904195555 17 274 8.0 17.7 0.00 0.00 0.00 60 1015.8
20260904195049 16 261 8.0 14.5 0.00 0.00 0.00 61 1015.8
20260904194551 16 277 6.4 14.5 0.00 0.00 0.00 63 1015.9
20260904194048 16 255 6.4 12.9 0.00 0.00 0.00 64 1015.9
20260904193548 16 273 6.4 12.9 0.00 0.00 0.00 65 1016.0
20260904193048 15 281 3.2 12.9 0.00 0.00 0.00 66 1016.0
20260904192548 15 289 4.8 12.9 0.00 0.00 0.00 66 1016.0
20260904192047 15 294 3.2 9.7 0.00 0.00 0.00 65 1016.0
20260904191547 16 287 4.8 9.7 0.00 0.00 0.00 65 1016.0
20260904191047 15 285 3.2 8.0 0.00 0.00 0.00 66 1016.1
20260904190546 15 289 3.2 6.4 0.00 0.00 0.00 66 1016.1
20260904190050 15 268 3.2 6.4 0.00 0.00 0.00 66 1016.0
20260904185546 15 279 3.2 6.4 0.00 0.00 0.00 66 1015.9
20260904185046 15 275 3.2 11.3 0.00 0.00 0.00 66 1015.8
20260904184545 15 284 3.2 12.9 0.00 0.00 0.00 66 1015.8
20260904184045 15 279 4.8 16.1 0.00 0.00 0.00 66 1015.8
20260904183547 15 281 4.8 16.1 0.00 0.00 0.00 66 1015.8
20260904183044 15 286 3.2 14.5 0.00 0.00 0.00 66 1015.7
20260904182548 15 269 6.4 16.1 0.00 0.00 0.00 66 1015.7
20260904182043 15 326 8.0 16.1 0.00 0.00 0.00 66 1015.7
20260904181547 15 315 8.0 16.1 0.00 0.00 0.00 66 1015.7
20260904181043 15 254 8.0 16.1 0.00 0.00 0.00 66 1015.6
20260904180541 15 290 9.7 16.1 0.00 0.00 0.00 66 1015.7
20260904180047 15 304 4.8 14.5 0.00 0.00 0.00 67 1015.8
20260904175540 15 311 4.8 12.9 0.00 0.00 0.00 67 1015.8
20260904175040 15 267 4.8 12.9 0.00 0.00 0.00 67 1015.8
20260904174541 15 262 4.8 12.9 0.00 0.00 0.00 67 1015.8
20260904174040 15 267 4.8 14.5 0.00 0.00 0.00 67 1015.9
20260904173539 15 284 6.4 14.5 0.00 0.00 0.00 67 1015.8
20260904173054 15 283 4.8 11.3 0.00 0.00 0.00 67 1015.9
20260904172538 15 266 6.4 16.1 0.00 0.00 0.00 67 1016.0
20260904172038 15 281 4.8 16.1 0.00 0.00 0.00 67 1015.9
20260904171544 15 288 6.4 16.1 0.00 0.00 0.00 67 1015.8
20260904171036 15 275 4.8 16.1 0.00 0.00 0.00 67 1015.9
20260904170535 15 315 4.8 12.9 0.00 0.00 0.00 67 1015.9
20260904170039 15 305 4.8 12.9 0.00 0.00 0.00 66 1016.0
20260904165538 15 273 4.8 12.9 0.00 0.00 0.00 66 1016.1
20260904165033 15 324 6.4 12.9 0.00 0.00 0.00 65 1016.2
20260904164532 15 300 6.4 11.3 0.00 0.00 0.00 65 1016.2
20260904164031 15 293 6.4 9.7 0.00 0.00 0.00 64 1016.3
20260904163530 15 323 4.8 11.3 0.00 0.00 0.00 64 1016.3
20260904163030 15 294 3.2 6.4 0.00 0.00 0.00 63 1016.5
20260904162529 16 301 3.2 8.0 0.00 0.00 0.00 62 1016.5
20260904162027 16 310 4.8 11.3 0.00 0.00 0.00 62 1016.6
20260904161526 16 266 3.2 11.3 0.00 0.00 0.00 62 1016.8
20260904161028 16 277 4.8 8.0 0.00 0.00 0.00 61 1016.8
20260904160526 16 285 3.2 8.0 0.00 0.00 0.00 61 1016.9
20260904160028 16 327 4.8 12.9 0.00 0.00 0.00 61 1016.9
20260904155523 16 295 6.4 12.9 0.00 0.00 0.00 61 1017.1
20260904155022 16 307 4.8 11.3 0.00 0.00 0.00 62 1017.1
20260904154521 16 306 4.8 11.3 0.00 0.00 0.00 62 1017.1
20260904154020 16 293 4.8 8.0 0.00 0.00 0.00 63 1017.3
20260904153520 15 300 4.8 8.0 0.00 0.00 0.00 64 1017.4
20260904153019 15 303 4.8 8.0 0.00 0.00 0.00 65 1017.5
20260904152519 15 288 4.8 8.0 0.00 0.00 0.00 65 1017.6
20260904152018 15 299 4.8 8.0 0.00 0.00 0.00 66 1017.6
20260904151517 15 302 4.8 8.0 0.00 0.00 0.00 66 1017.6
20260904151017 15 297 4.8 9.7 0.00 0.00 0.00 66 1017.6
20260904150517 15 297 4.8 9.7 0.00 0.00 0.00 66 1017.6
20260904150016 15 281 4.8 6.4 0.00 0.00 0.00 67 1017.6
20260904145515 16 281 4.8 9.7 0.00 0.00 0.00 67 1017.5
20260904145014 16 277 4.8 9.7 0.00 0.00 0.00 66 1017.6
20260904144515 16 284 4.8 9.7 0.00 0.00 0.00 66 1017.7
20260904144013 16 290 4.8 8.0 0.00 0.00 0.00 66 1017.7
20260904143514 16 305 3.2 8.0 0.00 0.00 0.00 67 1017.8
20260904143017 16 329 4.8 12.9 0.00 0.00 0.00 68 1017.8
20260904142511 16 316 6.4 12.9 0.00 0.00 0.00 69 1017.7
20260904142013 16 311 4.8 8.0 0.00 0.00 0.00 71 1017.7
20260904141511 16 315 4.8 8.0 0.00 0.00 0.00 72 1017.7
20260904141009 16 317 1.6 6.4 0.00 0.00 0.00 72 1017.8
20260904140508 16 312 3.2 8.0 0.00 0.00 0.00 71 1017.8
20260904140008 16 314 3.2 8.0 0.00 0.00 0.00 71 1017.7
20260904135507 16 325 3.2 8.0 0.00 0.00 0.00 71 1017.7
20260904135006 16 314 3.2 8.0 0.00 0.00 0.00 70 1017.7
20260904134513 17 306 4.8 8.0 0.00 0.00 0.00 68 1017.7
20260904134006 17 286 3.2 4.8 0.00 0.00 0.00 68 1017.7
20260904133507 16 297 1.6 4.8 0.00 0.00 0.00 68 1017.8
20260904133009 16 297 1.6 4.8 0.00 0.00 0.00 69 1017.8
20260904132506 16 297 1.6 4.8 0.00 0.00 0.00 71 1017.8
20260904132107 16 279 3.2 6.4 0.00 0.00 0.00 73 1017.8
20260904131505 15 292 3.2 4.8 0.00 0.00 0.00 77 1017.8
20260904131005 15 279 0.0 0.0 0.00 0.00 0.00 79 1017.8
20260904130507 15 279 0.0 3.2 0.00 0.00 0.00 79 1017.8
20260904130004 15 279 0.0 8.0 0.00 0.00 0.00 78 1017.8
20260904125505 15 279 1.6 8.0 0.00 0.00 0.00 78 1017.9
20260904125004 16 286 4.8 9.7 0.00 0.00 0.00 76 1017.9
20260904124504 16 321 3.2 9.7 0.00 0.00 0.00 76 1017.8
20260904124003 15 273 0.0 0.0 0.00 0.00 0.00 78 1017.8
20260904123503 15 273 0.0 0.0 0.00 0.00 0.00 78 1017.9
20260904123003 15 273 0.0 0.0 0.00 0.00 0.00 78 1017.9
20260904122503 16 273 0.0 4.8 0.00 0.00 0.00 77 1018.1
20260904122005 16 273 0.0 4.8 0.00 0.00 0.00 76 1018.1
20260904121503 16 268 3.2 6.4 0.00 0.00 0.00 75 1018.1
20260904121002 16 323 1.6 6.4 0.00 0.00 0.00 75 1018.1
20260904120502 16 325 3.2 6.4 0.00 0.00 0.00 76 1018.2
20260904120004 16 309 3.2 6.4 0.00 0.00 0.00 76 1018.2
20260904115502 16 300 3.2 8.0 0.00 0.00 0.00 77 1018.2
20260904115003 16 296 3.2 8.0 0.00 0.00 0.00 78 1018.2
20260904114502 16 279 3.2 6.4 0.00 0.00 0.00 77 1018.2
20260904114003 16 286 3.2 6.4 0.00 0.00 0.00 77 1018.3
20260904113501 16 286 3.2 8.0 0.00 0.00 0.00 76 1018.4
20260904113101 16 292 3.2 12.9 0.00 0.00 0.00 75 1018.3
20260904112601 16 269 4.8 12.9 0.00 0.00 0.00 75 1018.4
20260904112101 16 284 4.8 12.9 0.00 0.00 0.00 76 1018.3
20260904111600 16 309 3.2 8.0 0.00 0.00 0.00 76 1018.2
20260904111059 16 265 1.6 9.7 0.00 0.00 0.00 76 1018.2
20260904110559 16 259 3.2 8.0 0.00 0.00 0.00 76 1018.2
20260904110059 16 289 3.2 9.7 0.00 0.00 0.00 75 1018.1
20260904105559 16 282 3.2 12.9 0.00 0.00 0.00 75 1018.1
20260904105101 16 254 6.4 12.9 0.00 0.00 0.00 75 1018.0
20260904104600 16 315 3.2 12.9 0.00 0.00 0.00 75 1018.0
20260904104059 16 285 3.2 6.4 0.00 0.00 0.00 75 1017.9
20260904103559 16 263 3.2 6.4 0.00 0.00 0.00 76 1017.8
20260904103059 16 313 1.6 9.7 0.00 0.00 0.00 75 1017.7
20260904102602 16 338 3.2 9.7 0.00 0.00 0.00 75 1017.7
20260904102100 16 333 1.6 8.0 0.00 0.00 0.00 75 1017.6
20260904101559 16 324 3.2 8.0 0.00 0.00 0.00 75 1017.6
20260904101058 16 316 3.2 8.0 0.00 0.00 0.00 76 1017.5
20260904100557 16 320 1.6 6.4 0.00 0.00 0.00 76 1017.4
20260904100105 16 325 0.0 4.8 0.00 0.00 0.00 75 1017.4
20260904095557 16 13 0.0 6.4 0.00 0.00 0.00 75 1017.3
20260904095057 16 336 0.0 6.4 0.00 0.00 0.00 75 1017.4
20260904094602 16 254 0.0 4.8 0.00 0.00 0.00 75 1017.3
20260904094057 16 257 1.6 8.0 0.00 0.00 0.00 74 1017.3
20260904093558 16 263 1.6 6.4 0.00 0.00 0.00 74 1017.2
20260904093057 16 261 1.6 9.7 0.00 0.00 0.00 74 1017.2
20260904092556 16 344 1.6 14.5 0.00 0.00 0.00 74 1017.1
20260904092056 16 279 4.8 12.9 0.00 0.00 0.00 75 1016.9
20260904091556 16 248 1.6 9.7 0.00 0.00 0.00 75 1017.0
20260904091057 16 314 0.0 9.7 0.00 0.00 0.00 75 1017.0
20260904090556 16 303 1.6 9.7 0.00 0.00 0.00 75 1016.9